HULIANWANG DIGUI-83

基本信息
目录编号:
65818
目录名称:
HULIANWANG DIGUI-83
国际标识:
2025-220B
轨道中心:
EARTH
卫星名称:
HULIANWANG DIGUI-83
卫星全名:
HULIANWANG DIGUI-83
卫星状态:
在轨 (已飞行23 天)
发射日期:
2025-09-27 UTC
国别 :
中国 (CN)
星等 :
--
轨道信息
数据来源 国际轨道数据
星历时间: 2025-10-08T05:10:51+0800
轨道信息已过期12天
半长轴: 7381.79km
偏心率: 0.000912
轨道倾角: 86.496°
近地点辐角 185.621°
升交点赤经 129.664°
平近点角 174.485°
近地点: 996.922km
远地点: 1010.388km
周期: 105.197分钟
每日圈数: 13.688638
详细信息
使用方式:
暂无
2D轨道图
3D轨道图
轨道高度分析图
轨道倾角分析图
轨道综合分析图
查看轨道综合分析图